Cloud_Cover
100 100 100 100 100 99 100 100 100 81 54 13 89 14 5 4 66 69 20 9 9 6 7 0 2 0 0 0 5 5 3 0
100 100 100 100 100 100 100 94 99 92 100 70 5 5 5 8 68 77 52 28 36 72 15 7 16 17 23 6 5 5 0 0
100 98 91 100 70 100 100 77 30 14 75 4 0 0 5 43 86 100 59 78 19 100 74 16 5 14 18 20 5 5 3 0
98 72 7 57 73 88 49 4 5 5 5 2 0 0 3 44 100 100 90 44 6 86 98 95 96 51 13 36 65 5 4 1
8 26 88 87 22 36 5 5 0 3 5 1 0 0 5 5 14 100 87 92 2 99 100 100 100 100 100 100 56 13 2 5
22 53 100 100 97 18 12 5 2 4 0 0 1 2 8 18 19 85 16 61 4 76 100 100 100 100 100 100 76 8 5 2
99 92 92 83 79 42 21 4 2 2 2 0 4 3 18 5 4 49 93 95 5 5 35 100 100 100 100 100 22 5 1 4
5 9 5 6 3 0 2 2 4 5 0 1 1 0 0 0 3 91 66 14 53 95 97 100 100 92 100 25 2 13 17 34
5 5 5 4 0 0 82 78 4 0 0 0 3 0 20 26 99 93 5 50 100 33 49 45 100 42 32 54 21 39 97 100
5 5 1 33 38 83 5 4 0 0 0 0 0 4 72 96 100 74 67 90 40 5 6 95 62 29 80 52 29 86 100 98
53 11 5 19 83 14 4 0 0 0 0 0 32 16 59 58 96 100 39 5 5 19 100 15 5 50 58 21 24 70 91 56
5 4 73 100 74 5 0 0 0 0 0 0 0 16 36 13 99 33 31 5 58 100 6 1 21 61 44 29 84 88 18 63
48 83 0 0 3 0 0 0 8 8 0 0 0 0 4 17 17 32 12 30 100 84 3 1 2 58 0 46 80 29 23 98
1 0 0 11 64 99 76 57 72 1 0 0 0 0 3 10 15 12 29 15 3 0 0 0 64 2 0 28 2 5 39 99
0 0 17 74 100 100 100 38 40 2 0 2 5 4 0 0 0 13 6 4 2 2 0 0 0 0 4 5 7 28 80 75
0 4 74 100 100 99 38 18 14 0 3 5 5 0 0 0 2 0 3 0 0 0 77 10 0 0 54 5 99 98 19 85
61 100 100 100 76 29 6 0 0 5 6 9 0 0 18 9 0 0 0 0 0 38 1 0 0 5 73 3 27 11 92 100
100 100 88 62 23 7 70 0 12 5 4 0 0 0 0 0 0 0 0 0 0 0 0 0 0 16 13 35 52 85 100 62
100 97 65 28 12 66 66 5 5 2 0 0 0 0 0 0 0 0 2 0 0 0 0 0 0 11 39 52 58 96 37 61
100 84 41 13 25 5 58 5 5 2 4 0 0 0 0 0 0 0 0 0 0 0 0 0 0 38 5 54 94 100 53 66